Date,TemperatureHighF,TemperatureAvgF,TemperatureLowF,DewpointHighF,DewpointAvgF,DewpointLowF,HumidityHigh,HumidityAvg,HumidityLow,PressureMaxIn,PressureMinIn,WindSpeedMaxMPH,WindSpeedAvgMPH,GustSpeedMaxMPH,PrecipitationSumIn
2013-1-1,30.6,24.0,15.1,22.0,17.5,7.1,85,76,69,30.19,30.09,10,3,16,0.00
2013-1-2,29.7,19.8,12.1,18.1,10.6,5.3,76,68,49,30.22,30.13,17,4,17,0.00
2013-1-3,31.1,26.3,18.4,24.6,19.3,10.9,82,75,68,30.26,30.11,13,3,13,0.00
2013-1-4,36.7,25.5,14.9,24.5,18.4,10.2,82,75,58,30.26,30.15,14,3,14,0.00
2013-1-5,36.9,30.3,21.4,32.1,25.4,16.8,90,82,68,30.26,29.98,16,5,16,0.00
2013-1-6,35.8,31.3,23.8,31.7,25.3,18.7,87,79,71,30.34,29.92,17,4,17,0.00
2013-1-7,38.9,28.7,19.3,26.2,21.8,15.3,87,76,56,30.36,30.13,22,8,22,0.00
2013-1-8,41.9,33.9,27.7,32.0,27.4,22.6,84,77,67,30.20,30.06,17,6,17,0.00
2013-1-9,51.8,41.5,27.0,35.5,27.8,17.9,81,61,32,30.50,30.04,22,5,22,0.00
2013-1-10,44.3,34.5,23.0,39.5,26.9,17.0,93,74,55,30.51,29.93,20,5,20,0.00
2013-1-11,52.7,49.9,41.6,50.9,47.2,39.7,95,91,87,29.93,29.69,18,8,18,0.00
2013-1-12,57.1,47.5,34.6,50.4,41.3,30.6,88,79,59,29.98,29.77,19,5,19,0.00
2013-1-13,35.6,28.3,15.8,33.5,25.1,10.5,93,88,78,30.25,29.85,14,3,14,0.00
2013-1-14,27.2,18.6,13.3,19.0,12.7,8.6,83,78,68,30.46,30.24,7,1,7,0.00
2013-1-15,35.5,22.2,11.5,27.1,16.3,7.6,87,78,66,30.42,30.11,8,1,8,0.00
2013-1-16,36.7,28.3,16.7,27.5,21.1,12.6,88,75,57,30.11,29.86,17,3,17,0.00
2013-1-17,34.6,29.1,19.3,29.8,18.1,10.4,84,64,48,30.40,30.05,14,3,14,0.00
2013-1-18,40.0,30.3,17.8,29.3,21.6,10.2,80,70,61,30.43,29.97,30,8,30,0.00
2013-1-19,49.5,41.8,33.5,36.9,32.0,13.2,74,68,44,29.98,29.74,28,7,28,0.00
2013-1-20,33.5,21.2,16.7,12.1,7.1,2.7,63,54,42,30.28,29.89,26,4,28,0.00
2013-1-21,17.6,14.8,12.6,7.2,4.2,1.5,75,63,53,30.09,30.02,16,5,16,0.00
2013-1-22,15.7,10.8,2.7,0.4,-2.3,-6.1,67,55,46,30.31,30.21,13,3,13,0.00
2013-1-23,22.1,17.3,11.0,14.1,6.5,-1.3,81,62,57,30.22,30.00,17,3,17,0.00
2013-1-24,24.7,18.7,14.8,18.5,11.7,6.5,88,75,60,30.51,30.16,15,3,15,0.00
2013-1-25,27.9,23.3,18.4,20.8,15.5,9.6,81,72,61,30.27,29.88,13,4,13,0.00
2013-1-26,31.3,24.1,18.4,21.0,15.9,11.3,77,71,61,30.29,29.13,12,2,12,0.00
2013-1-27,35.3,28.9,22.0,33.1,23.5,15.9,92,80,72,30.36,29.04,22,7,22,0.00
2013-1-28,50.0,44.4,35.5,48.3,42.7,33.1,96,94,88,29.98,29.85,16,4,16,0.00
2013-1-29,59.4,56.1,47.7,57.4,54.4,46.6,97,94,90,29.87,29.42,24,8,24,0.00
2013-1-30,53.1,37.6,23.9,51.5,34.9,17.5,97,90,76,29.62,29.20,21,4,21,0.00
2013-1-31,23.9,17.4,8.8,18.9,10.4,1.4,85,74,66,30.13,29.62,22,7,22,0.00